一网星座-0026星 (ONEWEB-0026 )

导读

ONEWEB-0026是英国(GB)于2020年2月6日发射的一颗卫星,隶属于OneWeb低轨卫星互联网星座系统,该星座旨在构建全球宽带互联网覆盖,为偏远地区等提供高速网络接入服务,这颗卫星是OneWeb早期组网进程中的组成部分,服务于全球卫星通信网络的布局建设。

基本信息
目录编号:
45139
目录名称:
ONEWEB-0026
国际标识:
2020-008J
轨道中心:
EARTH
卫星名称:
一网星座-0026星
卫星全名:
一网星座-0026星 (ONEWEB-0026 )
卫星状态:
在轨 (已飞行2409 天)
发射日期:
2020-02-06 UTC
国别 :
英国 (GB)
星等 :
--
该卫星已列入 空间交会检测服务 Space Conjunction Data Service (SCDS) ,当前飞行风险评估等级: 无高风险
轨道信息
数据来源 国际轨道数据 AOE轨道数据
星历时间 2026-09-11T02:19:43+0800
17小时前
查看轨道信息
2026-09-05T12:00:00+0800
6天前
查看轨道信息
半长轴 7595.826km 7595.815km
偏心率 0.0001686 0.0001973
轨道倾角 87.896° 87.897°
近地点辐角 97.959° 117.210°
升交点赤经 4.051° 5.161°
平近点角 262.173° 113.944°
近地点 1216.408km 1216.179km
远地点 1218.97km 1219.177km
周期 109.805分钟 109.805分钟
每日圈数 13.114154 13.114184
详细信息
平衡模式:
三轴稳定
覆盖范围:
全球
运营商:
一网卫星公司
运营商所在国:
英国
制造商(研发单位):
空客防务与航天公司
制造商所在国:
法国大都会
使用方式:
暂无
卫星简介
OneWeb卫星网络由648颗重约125公斤的微型卫星组成,运行在1200公里的轨道上。 每颗卫星都能够提供至少每秒8千兆位的吞吐量,以使用其高吞吐量的Ku频段有效载荷为家庭和移动平台提供互联网接入。该卫星仍在工作。
2D轨道图
3D轨道图
轨道高度分析图
轨道倾角分析图
轨道综合分析图
查看轨道综合分析图
与全量物体交会距离演化趋势
与全量物体交会风险概率演化趋势